TITAN 3C TRANSTAGE DEB, 1642

Orbit data source: Space-Track

TITAN 3C TRANSTAGE DEB, 1642 is space debris in LEO originally from a launch on Fri, 15 Oct 1965 UTC launched from the Air Force Eastern Test Range (AFETR). Debris objects in space refer to the collection of defunct objects orbiting the Earth. Examples of debris include non-operational satellites, rocket bodies, and fragments generated from explosions, collisions, or faulty payload assembly.

Loading next visibility...
Identifier
1642, 1965-082D
Orbit
LEO
Country
Flag of USUS
Related business
Manufacturer
Unknown
Mission
Spacecraft
Bus & Motor
Unknown
Mass
Unknown
Launch date (UTC)
1965-10-15 (60 years ago)
Launch vehicle
Unknown
Launch site
Air Force Eastern Test Range (AFETR)
Object type
Payload
Rocket body
Debris
Shape & HBR
Unknown
Radar Cross Section
2.300 m², Large (>1 m²)

Expand to show TLE details & history
Last TLE update: 9 hours ago

TLE from 9 hours ago
0 TITAN 3C TRANSTAGE DEB
1 01642U 65082D   25242.83750858  .00001760  00000-0  20230-3 0  9997
2 01642  32.0922 164.0318 0023185 139.4625 220.7757 14.83724431194411
Epoch: 2025-08-30T20:06Z
TLE epoch observation values (Epoch: 2025-08-30T20:06:00.741Z)
Latitude
0.00001°
Longitude
-116.73734°
Altitude
628.521 km
Speed
7.54 km/s
True Right ascension
10h 56m 07s
True Declination
0° 00' 00"
Sunlit
Object was in daylight at epoch
Visualization orbit readout
Latitude
Unknown
Longitude
Unknown
Altitude
Unknown
Speed
Unknown
Apparent Right ascension
Unknown
Apparent Declination
Unknown
Sunlit
N/A
Visualization observer readout
Local Sidereal Time
20:21:27
Azimuth
Unknown
Elevation
Unknown
Doppler factor
Unknown
Orbital elements
Apogee altitude
637.456 km
Perigee altitude
605 km
Semi-major axis
6,999.365 km
Eccentricity
0.00232
Inclination
32.0922°
RAAN
164.0318°
Arg. of periapsis
139.4625°
True anomaly
220.60256°
Mean anomaly
220.7757°
Eccentric anomaly
220.68909°
Mean motion
3.70642 °/min
Orbital period
97.13 mins
BSTAR
0.0002023
Loading maneuver chart data...
Computing Atmospheric mass density...

Documentation

Showing up to 5 results
|